{"data":{"norad_id":68793,"epoch":"2026-05-24T23:16:47.117856Z","epoch_age_seconds":77710,"freshness":"FRESH","line1":"1 68793U 26088B   26144.96998979  .00003874  00000+0  26316-3 0  9992","line2":"2 68793  97.5033 294.8303 0015796 178.0709 182.0582 15.06854399  4797","mean_motion":15.06854399,"eccentricity":0.0015796,"inclination_deg":97.5033,"raan_deg":294.8303,"arg_perigee_deg":178.0709,"mean_anomaly_deg":182.0582,"bstar":0.00026316,"rev_number":479,"period_min":95.563313944309,"perigee_km":534.88215915424,"apogee_km":556.75632170901,"semimajor_km":6923.9562404316,"source":"CELESTRAK","updated_at":"2026-05-25T13:38:08.087459Z"}}